| time (UTC) | temp C | wind direction | speed KPH | gust KPH | rain 1hr cm | rain 24hr cm | rain mn cm | humidity % | barometer mb |
| 20260904042520 | 26 | 0 | 0.0 | 0.0 | 0.00 | 0.08 | 0.08 | 61 | 1015.0 |
| 20260904042018 | 26 | 0 | 0.0 | 0.0 | 0.00 | 0.08 | 0.08 | 62 | 1015.0 |
| 20260904041552 | 26 | 0 | 0.0 | 0.0 | 0.00 | 0.08 | 0.08 | 64 | 1015.0 |
| 20260904041020 | 26 | 0 | 0.0 | 0.0 | 0.00 | 0.08 | 0.08 | 62 | 1014.9 |
| 20260904040520 | 26 | 0 | 0.0 | 0.0 | 0.00 | 0.08 | 0.08 | 63 | 1014.8 |
| 20260904040041 | 26 | 0 | 0.0 | 0.0 | 0.00 | 0.08 | 0.08 | 65 | 1014.8 |
| 20260904035520 | 26 | 0 | 0.0 | 0.0 | 0.00 | 0.08 | 0.08 | 65 | 1014.8 |
| 20260904035020 | 26 | 0 | 0.0 | 0.0 | 0.00 | 0.08 | 0.08 | 66 | 1015.0 |
| 20260904034541 | 27 | 0 | 0.0 | 0.0 | 0.00 | 0.08 | 0.08 | 66 | 1015.0 |
| 20260904034021 | 27 | 0 | 0.0 | 0.0 | 0.00 | 0.08 | 0.08 | 67 | 1015.0 |
| 20260904033522 | 27 | 0 | 0.0 | 0.0 | 0.00 | 0.08 | 0.08 | 69 | 1015.2 |
| 20260904033055 | 27 | 0 | 0.0 | 0.0 | 0.00 | 0.08 | 0.08 | 68 | 1015.2 |
| 20260904032520 | 27 | 0 | 0.0 | 0.0 | 0.00 | 0.08 | 0.08 | 69 | 1015.1 |
| 20260904032020 | 27 | 0 | 0.0 | 0.0 | 0.00 | 0.08 | 0.08 | 67 | 1015.2 |
| 20260904031540 | 27 | 0 | 0.0 | 0.0 | 0.00 | 0.08 | 0.08 | 68 | 1015.3 |
| 20260904031020 | 27 | 0 | 0.0 | 0.0 | 0.00 | 0.08 | 0.08 | 69 | 1015.2 |
| 20260904030525 | 27 | 0 | 0.0 | 0.0 | 0.00 | 0.08 | 0.08 | 70 | 1015.5 |
| 20260904030038 | 27 | 0 | 0.0 | 0.0 | 0.00 | 0.08 | 0.08 | 71 | 1015.4 |
| 20260904025523 | 27 | 0 | 0.0 | 0.0 | 0.00 | 0.08 | 0.08 | 72 | 1015.5 |
| 20260904025021 | 27 | 0 | 0.0 | 0.0 | 0.00 | 0.08 | 0.08 | 73 | 1015.5 |
| 20260904024544 | 27 | 0 | 0.0 | 0.0 | 0.00 | 0.08 | 0.08 | 74 | 1015.5 |
| 20260904024018 | 27 | 0 | 0.0 | 0.0 | 0.00 | 0.08 | 0.08 | 74 | 1015.3 |
| 20260904023524 | 27 | 0 | 0.0 | 0.0 | 0.00 | 0.08 | 0.08 | 74 | 1015.5 |
| 20260904023040 | 27 | 0 | 0.0 | 0.0 | 0.00 | 0.08 | 0.08 | 74 | 1015.4 |
| 20260904022520 | 28 | 0 | 0.0 | 1.6 | 0.00 | 0.08 | 0.08 | 73 | 1015.3 |
| 20260904022020 | 28 | 0 | 0.0 | 3.2 | 0.00 | 0.08 | 0.08 | 74 | 1015.3 |
| 20260904021540 | 28 | 0 | 0.0 | 3.2 | 0.00 | 0.08 | 0.08 | 74 | 1015.2 |
| 20260904021027 | 27 | 0 | 0.0 | 1.6 | 0.00 | 0.08 | 0.08 | 74 | 1015.2 |
| 20260904020524 | 27 | 0 | 0.0 | 0.0 | 0.00 | 0.08 | 0.08 | 74 | 1015.1 |
| 20260904020053 | 28 | 0 | 0.0 | 0.0 | 0.00 | 0.08 | 0.08 | 74 | 1015.2 |
| 20260904015521 | 28 | 0 | 0.0 | 0.0 | 0.00 | 0.08 | 0.08 | 74 | 1015.0 |
| 20260904015021 | 28 | 0 | 0.0 | 0.0 | 0.00 | 0.08 | 0.08 | 74 | 1015.1 |
| 20260904014613 | 28 | 0 | 0.0 | 0.0 | 0.00 | 0.08 | 0.08 | 74 | 1015.0 |
| 20260904014021 | 28 | 0 | 0.0 | 0.0 | 0.00 | 0.08 | 0.08 | 74 | 1014.9 |
| 20260904013524 | 28 | 0 | 0.0 | 0.0 | 0.00 | 0.08 | 0.08 | 74 | 1014.8 |
| 20260904013040 | 28 | 0 | 0.0 | 0.0 | 0.00 | 0.08 | 0.08 | 74 | 1014.8 |
| 20260904012517 | 28 | 0 | 0.0 | 0.0 | 0.00 | 0.08 | 0.08 | 74 | 1014.7 |
| 20260904012020 | 28 | 0 | 0.0 | 0.0 | 0.00 | 0.08 | 0.08 | 74 | 1014.6 |
| 20260904011547 | 28 | 0 | 0.0 | 0.0 | 0.00 | 0.08 | 0.08 | 74 | 1014.6 |
| 20260904011024 | 28 | 0 | 0.0 | 0.0 | 0.00 | 0.08 | 0.08 | 74 | 1014.8 |
| 20260904010520 | 28 | 0 | 0.0 | 0.0 | 0.00 | 0.08 | 0.08 | 73 | 1014.7 |
| 20260904010043 | 29 | 0 | 0.0 | 0.0 | 0.00 | 0.08 | 0.08 | 73 | 1014.6 |
| 20260904005520 | 29 | 0 | 0.0 | 0.0 | 0.00 | 0.08 | 0.08 | 73 | 1014.6 |
| 20260904005020 | 29 | 0 | 0.0 | 0.0 | 0.00 | 0.08 | 0.08 | 72 | 1014.4 |
| 20260904004544 | 30 | 0 | 0.0 | 0.0 | 0.00 | 0.08 | 0.08 | 72 | 1014.4 |
| 20260904004024 | 30 | 0 | 0.0 | 0.0 | 0.00 | 0.08 | 0.08 | 71 | 1014.2 |
| 20260904003522 | 30 | 0 | 0.0 | 0.0 | 0.00 | 0.08 | 0.08 | 71 | 1014.2 |
| 20260904003050 | 30 | 0 | 0.0 | 0.0 | 0.00 | 0.08 | 0.08 | 70 | 1014.1 |
| 20260904002520 | 30 | 0 | 0.0 | 0.0 | 0.00 | 0.08 | 0.08 | 70 | 1014.3 |
| 20260904002017 | 31 | 0 | 0.0 | 0.0 | 0.00 | 0.08 | 0.08 | 69 | 1014.3 |
| 20260904001541 | 31 | 0 | 0.0 | 0.0 | 0.00 | 0.08 | 0.08 | 68 | 1014.3 |
| 20260904001020 | 31 | 0 | 0.0 | 0.0 | 0.00 | 0.08 | 0.08 | 67 | 1014.3 |
| 20260904000525 | 31 | 0 | 0.0 | 0.0 | 0.00 | 0.08 | 0.08 | 67 | 1014.5 |
| 20260904000044 | 31 | 0 | 0.0 | 1.6 | 0.00 | 0.08 | 0.08 | 67 | 1014.5 |
| 20260903235524 | 31 | 0 | 0.0 | 1.6 | 0.00 | 0.08 | 0.08 | 67 | 1014.4 |
| 20260903235021 | 31 | 0 | 0.0 | 0.0 | 0.00 | 0.08 | 0.08 | 65 | 1014.4 |
| 20260903234541 | 31 | 0 | 0.0 | 0.0 | 0.00 | 0.08 | 0.08 | 64 | 1014.4 |
| 20260903234019 | 32 | 0 | 0.0 | 0.0 | 0.00 | 0.08 | 0.08 | 63 | 1014.4 |
| 20260903233524 | 32 | 0 | 0.0 | 0.0 | 0.00 | 0.08 | 0.08 | 64 | 1014.5 |
| 20260903233041 | 32 | 0 | 0.0 | 0.0 | 0.00 | 0.08 | 0.08 | 63 | 1014.6 |
| 20260903232522 | 31 | 0 | 0.0 | 1.6 | 0.00 | 0.08 | 0.08 | 63 | 1014.5 |
| 20260903232023 | 31 | 0 | 0.0 | 1.6 | 0.00 | 0.08 | 0.08 | 63 | 1014.4 |
| 20260903231544 | 31 | 0 | 0.0 | 1.6 | 0.00 | 0.08 | 0.08 | 63 | 1014.6 |
| 20260903231023 | 31 | 0 | 0.0 | 1.6 | 0.00 | 0.08 | 0.08 | 63 | 1014.5 |
| 20260903230523 | 31 | 0 | 0.0 | 1.6 | 0.00 | 0.08 | 0.08 | 64 | 1014.5 |
| 20260903230053 | 31 | 0 | 0.0 | 1.6 | 0.00 | 0.08 | 0.08 | 65 | 1014.5 |
| 20260903225519 | 31 | 0 | 0.0 | 1.6 | 0.00 | 0.08 | 0.08 | 65 | 1014.4 |
| 20260903225020 | 31 | 0 | 0.0 | 1.6 | 0.00 | 0.08 | 0.08 | 67 | 1014.4 |
| 20260903224540 | 30 | 0 | 0.0 | 3.2 | 0.00 | 0.08 | 0.08 | 67 | 1014.4 |
| 20260903224020 | 30 | 0 | 0.0 | 3.2 | 0.00 | 0.08 | 0.08 | 66 | 1014.3 |
| 20260903223520 | 30 | 0 | 0.0 | 6.4 | 0.00 | 0.08 | 0.08 | 67 | 1014.3 |
| 20260903223044 | 30 | 0 | 0.0 | 6.4 | 0.00 | 0.08 | 0.08 | 67 | 1014.2 |
| 20260903222518 | 30 | 0 | 0.0 | 3.2 | 0.00 | 0.08 | 0.08 | 67 | 1014.3 |
| 20260903222021 | 30 | 275 | 0.0 | 3.2 | 0.00 | 0.08 | 0.08 | 68 | 1014.2 |
| 20260903221543 | 30 | 0 | 0.0 | 4.8 | 0.00 | 0.08 | 0.08 | 68 | 1014.2 |
| 20260903221022 | 30 | 334 | 0.0 | 4.8 | 0.00 | 0.08 | 0.08 | 69 | 1014.2 |
| 20260903220524 | 30 | 329 | 0.0 | 3.2 | 0.00 | 0.08 | 0.08 | 69 | 1014.2 |
| 20260903220042 | 30 | 0 | 0.0 | 6.4 | 0.00 | 0.08 | 0.08 | 68 | 1014.3 |
| 20260903215521 | 30 | 0 | 0.0 | 6.4 | 0.00 | 0.08 | 0.08 | 68 | 1014.3 |
| 20260903215020 | 30 | 0 | 0.0 | 6.4 | 0.00 | 0.08 | 0.08 | 67 | 1014.2 |
| 20260903214546 | 30 | 0 | 0.0 | 8.0 | 0.00 | 0.08 | 0.08 | 68 | 1014.2 |
| 20260903214027 | 30 | 325 | 1.6 | 8.0 | 0.00 | 0.08 | 0.08 | 66 | 1014.3 |
| 20260903213522 | 30 | 0 | 0.0 | 8.0 | 0.00 | 0.08 | 0.08 | 65 | 1014.3 |
| 20260903213050 | 31 | 15 | 0.0 | 8.0 | 0.00 | 0.08 | 0.08 | 65 | 1014.3 |
| 20260903212521 | 31 | 293 | 1.6 | 6.4 | 0.00 | 0.08 | 0.08 | 65 | 1014.5 |
| 20260903212025 | 31 | 285 | 0.0 | 4.8 | 0.00 | 0.08 | 0.08 | 66 | 1014.8 |
| 20260903211542 | 31 | 285 | 0.0 | 6.4 | 0.00 | 0.08 | 0.08 | 67 | 1014.8 |
| 20260903211019 | 31 | 0 | 0.0 | 6.4 | 0.00 | 0.08 | 0.08 | 65 | 1014.8 |
| 20260903210518 | 31 | 302 | 0.0 | 6.4 | 0.03 | 0.08 | 0.08 | 67 | 1014.8 |
| 20260903210040 | 31 | 0 | 0.0 | 8.0 | 0.08 | 0.08 | 0.08 | 66 | 1014.7 |
| 20260903205524 | 31 | 270 | 1.6 | 8.0 | 0.08 | 0.08 | 0.08 | 66 | 1014.6 |
| 20260903205020 | 31 | 34 | 0.0 | 3.2 | 0.08 | 0.08 | 0.08 | 67 | 1014.7 |
| 20260903204544 | 31 | 0 | 0.0 | 3.2 | 0.08 | 0.08 | 0.08 | 67 | 1014.4 |
| 20260903204022 | 31 | 0 | 0.0 | 6.4 | 0.08 | 0.08 | 0.08 | 71 | 1014.3 |
| 20260903203522 | 31 | 0 | 0.0 | 6.4 | 0.08 | 0.08 | 0.08 | 72 | 1014.5 |
| 20260903203043 | 31 | 0 | 0.0 | 6.4 | 0.08 | 0.08 | 0.08 | 71 | 1014.6 |
| 20260903202520 | 31 | 349 | 0.0 | 6.4 | 0.08 | 0.08 | 0.08 | 70 | 1014.5 |
| 20260903202020 | 32 | 0 | 0.0 | 4.8 | 0.08 | 0.08 | 0.08 | 72 | 1014.7 |
| 20260903201542 | 33 | 0 | 0.0 | 4.8 | 0.08 | 0.08 | 0.08 | 67 | 1014.2 |
| 20260903201017 | 35 | 360 | 0.0 | 8.0 | 0.08 | 0.08 | 0.08 | 64 | 1014.2 |
| 20260903200517 | 36 | 0 | 0.0 | 8.0 | 0.05 | 0.05 | 0.05 | 59 | 1014.3 |
| 20260903200042 | 37 | 42 | 1.6 | 8.0 | 0.00 | 0.00 | 0.00 | 47 | 1014.4 |
| 20260903195521 | 37 | 18 | 1.6 | 6.4 | 0.00 | 0.00 | 0.00 | 44 | 1014.4 |
| 20260903195023 | 37 | 0 | 0.0 | 3.2 | 0.00 | 0.00 | 0.00 | 46 | 1014.5 |
| 20260903194542 | 37 | 0 | 0.0 | 6.4 | 0.00 | 0.00 | 0.00 | 45 | 1014.5 |
| 20260903194019 | 37 | 0 | 0.0 | 8.0 | 0.00 | 0.00 | 0.00 | 45 | 1014.7 |
| 20260903193525 | 37 | 146 | 0.0 | 8.0 | 0.00 | 0.00 | 0.00 | 46 | 1014.7 |
| 20260903193042 | 37 | 0 | 1.6 | 6.4 | 0.00 | 0.00 | 0.00 | 44 | 1014.8 |
| 20260903192521 | 37 | 0 | 0.0 | 6.4 | 0.00 | 0.00 | 0.00 | 44 | 1014.8 |
| 20260903192020 | 37 | 145 | 0.0 | 6.4 | 0.00 | 0.00 | 0.00 | 43 | 1014.9 |
| 20260903191541 | 37 | 0 | 0.0 | 11.3 | 0.00 | 0.00 | 0.00 | 44 | 1015.0 |
| 20260903191024 | 37 | 0 | 0.0 | 12.9 | 0.00 | 0.00 | 0.00 | 43 | 1015.0 |
| 20260903190524 | 38 | 12 | 1.6 | 12.9 | 0.00 | 0.00 | 0.00 | 42 | 1015.1 |
| 20260903190047 | 38 | 0 | 0.0 | 8.0 | 0.00 | 0.00 | 0.00 | 44 | 1015.0 |
| 20260903185522 | 38 | 215 | 1.6 | 8.0 | 0.00 | 0.00 | 0.00 | 43 | 1015.1 |
| 20260903185025 | 38 | 66 | 1.6 | 6.4 | 0.00 | 0.00 | 0.00 | 43 | 1015.2 |
| 20260903184544 | 38 | 0 | 0.0 | 6.4 | 0.00 | 0.00 | 0.00 | 46 | 1015.1 |
| 20260903184018 | 38 | 0 | 1.6 | 6.4 | 0.00 | 0.00 | 0.00 | 46 | 1015.2 |
| 20260903183520 | 38 | 0 | 1.6 | 8.0 | 0.00 | 0.00 | 0.00 | 44 | 1015.2 |
| 20260903183042 | 38 | 52 | 1.6 | 8.0 | 0.00 | 0.00 | 0.00 | 46 | 1015.3 |
| 20260903182517 | 38 | 0 | 0.0 | 6.4 | 0.00 | 0.00 | 0.00 | 45 | 1015.4 |
| 20260903182018 | 38 | 0 | 0.0 | 8.0 | 0.00 | 0.00 | 0.00 | 43 | 1015.7 |
| 20260903181540 | 38 | 0 | 0.0 | 9.7 | 0.00 | 0.00 | 0.00 | 45 | 1015.6 |
| 20260903181025 | 38 | 0 | 1.6 | 9.7 | 0.00 | 0.00 | 0.00 | 48 | 1015.5 |
| 20260903180522 | 38 | 0 | 1.6 | 6.4 | 0.00 | 0.00 | 0.00 | 44 | 1015.6 |
| 20260903180058 | 38 | 219 | 0.0 | 9.7 | 0.00 | 0.00 | 0.00 | 51 | 1015.7 |
| 20260903175523 | 38 | 175 | 1.6 | 9.7 | 0.00 | 0.00 | 0.00 | 52 | 1015.9 |
| 20260903175022 | 37 | 248 | 1.6 | 6.4 | 0.00 | 0.00 | 0.00 | 52 | 1015.9 |
| 20260903174543 | 37 | 75 | 0.0 | 9.7 | 0.00 | 0.00 | 0.00 | 48 | 1015.9 |
| 20260903174024 | 37 | 0 | 0.0 | 9.7 | 0.00 | 0.00 | 0.00 | 52 | 1015.9 |
| 20260903173520 | 37 | 0 | 1.6 | 9.7 | 0.00 | 0.00 | 0.00 | 49 | 1016.0 |
| 20260903173041 | 36 | 189 | 0.0 | 4.8 | 0.00 | 0.00 | 0.00 | 54 | 1016.1 |
| 20260903172518 | 36 | 0 | 0.0 | 4.8 | 0.00 | 0.00 | 0.00 | 50 | 1016.2 |
| 20260903172018 | 36 | 0 | 0.0 | 3.2 | 0.00 | 0.00 | 0.00 | 50 | 1016.2 |
| 20260903171544 | 36 | 154 | 0.0 | 4.8 | 0.00 | 0.00 | 0.00 | 55 | 1016.3 |
| 20260903171018 | 36 | 0 | 0.0 | 4.8 | 0.00 | 0.00 | 0.00 | 51 | 1016.4 |
| 20260903170522 | 36 | 0 | 0.0 | 4.8 | 0.00 | 0.00 | 0.00 | 52 | 1016.4 |
| 20260903170126 | 36 | 0 | 0.0 | 6.4 | 0.00 | 0.00 | 0.00 | 50 | 1016.6 |
| 20260903165521 | 36 | 0 | 0.0 | 6.4 | 0.00 | 0.00 | 0.00 | 51 | 1016.5 |
| 20260903165023 | 36 | 88 | 0.0 | 11.3 | 0.00 | 0.00 | 0.00 | 51 | 1016.7 |
| 20260903164549 | 36 | 0 | 1.6 | 11.3 | 0.00 | 0.00 | 0.00 | 50 | 1016.8 |
| 20260903164021 | 36 | 119 | 1.6 | 8.0 | 0.00 | 0.00 | 0.00 | 48 | 1016.8 |
| 20260903163518 | 36 | 65 | 1.6 | 8.0 | 0.00 | 0.00 | 0.00 | 51 | 1016.8 |
| 20260903163040 | 36 | 0 | 0.0 | 12.9 | 0.00 | 0.00 | 0.00 | 50 | 1016.9 |
| 20260903162526 | 36 | 15 | 3.2 | 12.9 | 0.00 | 0.00 | 0.00 | 49 | 1017.0 |
| 20260903162023 | 36 | 0 | 1.6 | 8.0 | 0.00 | 0.00 | 0.00 | 50 | 1017.0 |
| 20260903161552 | 36 | 42 | 0.0 | 4.8 | 0.00 | 0.00 | 0.00 | 54 | 1017.2 |
| 20260903161021 | 36 | 0 | 0.0 | 8.0 | 0.00 | 0.00 | 0.00 | 52 | 1017.2 |
| 20260903160525 | 36 | 336 | 0.0 | 8.0 | 0.00 | 0.00 | 0.00 | 53 | 1017.2 |
| 20260903160045 | 36 | 38 | 0.0 | 6.4 | 0.00 | 0.00 | 0.00 | 53 | 1017.3 |
| 20260903155526 | 36 | 44 | 0.0 | 3.2 | 0.00 | 0.00 | 0.00 | 57 | 1017.4 |
| 20260903155020 | 35 | 0 | 0.0 | 6.4 | 0.00 | 0.00 | 0.00 | 55 | 1017.3 |
| 20260903154551 | 35 | 41 | 0.0 | 6.4 | 0.00 | 0.00 | 0.00 | 55 | 1017.3 |
| 20260903154025 | 35 | 37 | 1.6 | 6.4 | 0.00 | 0.00 | 0.00 | 54 | 1017.4 |
| 20260903153526 | 35 | 0 | 0.0 | 3.2 | 0.00 | 0.00 | 0.00 | 57 | 1017.3 |
| 20260903153044 | 35 | 0 | 0.0 | 4.8 | 0.00 | 0.00 | 0.00 | 61 | 1017.3 |
| 20260903152521 | 34 | 0 | 0.0 | 8.0 | 0.00 | 0.00 | 0.00 | 60 | 1017.3 |
| 20260903152024 | 33 | 0 | 0.0 | 8.0 | 0.00 | 0.00 | 0.00 | 60 | 1017.2 |
| 20260903151548 | 33 | 15 | 1.6 | 8.0 | 0.00 | 0.00 | 0.00 | 58 | 1017.3 |
| 20260903151018 | 33 | 0 | 0.0 | 4.8 | 0.00 | 0.00 | 0.00 | 60 | 1017.2 |
| 20260903150520 | 33 | 0 | 0.0 | 4.8 | 0.00 | 0.00 | 0.00 | 61 | 1017.2 |
| 20260903150046 | 33 | 0 | 0.0 | 4.8 | 0.00 | 0.00 | 0.00 | 63 | 1017.2 |
| 20260903145520 | 33 | 60 | 0.0 | 3.2 | 0.00 | 0.00 | 0.00 | 64 | 1017.3 |
| 20260903145017 | 32 | 0 | 0.0 | 3.2 | 0.00 | 0.00 | 0.00 | 66 | 1017.4 |
| 20260903144540 | 32 | 0 | 0.0 | 3.2 | 0.00 | 0.00 | 0.00 | 65 | 1017.3 |
| 20260903144022 | 32 | 0 | 0.0 | 3.2 | 0.00 | 0.00 | 0.00 | 67 | 1017.4 |
| 20260903143521 | 32 | 0 | 0.0 | 3.2 | 0.00 | 0.00 | 0.00 | 67 | 1017.4 |
| 20260903143038 | 32 | 0 | 0.0 | 3.2 | 0.00 | 0.00 | 0.00 | 66 | 1017.2 |
| 20260903142518 | 32 | 0 | 0.0 | 3.2 | 0.00 | 0.00 | 0.00 | 68 | 1017.2 |
| 20260903142025 | 31 | 0 | 0.0 | 1.6 | 0.00 | 0.00 | 0.00 | 70 | 1017.2 |
| 20260903141541 | 31 | 0 | 0.0 | 3.2 | 0.00 | 0.00 | 0.00 | 69 | 1017.1 |
| 20260903141017 | 31 | 39 | 0.0 | 3.2 | 0.00 | 0.00 | 0.00 | 69 | 1017.1 |
| 20260903140517 | 31 | 39 | 0.0 | 6.4 | 0.00 | 0.00 | 0.00 | 68 | 1017.2 |
| 20260903140055 | 31 | 0 | 0.0 | 6.4 | 0.00 | 0.00 | 0.00 | 70 | 1017.0 |
| 20260903135517 | 31 | 0 | 0.0 | 3.2 | 0.00 | 0.00 | 0.00 | 69 | 1017.1 |
| 20260903135022 | 30 | 0 | 0.0 | 3.2 | 0.00 | 0.00 | 0.00 | 71 | 1017.1 |
| 20260903134544 | 30 | 0 | 0.0 | 3.2 | 0.00 | 0.00 | 0.00 | 71 | 1017.2 |
| 20260903134018 | 30 | 0 | 0.0 | 3.2 | 0.00 | 0.00 | 0.00 | 72 | 1017.3 |
| 20260903133525 | 30 | 0 | 0.0 | 3.2 | 0.00 | 0.00 | 0.00 | 72 | 1017.4 |
| 20260903133042 | 29 | 0 | 0.0 | 3.2 | 0.00 | 0.00 | 0.00 | 74 | 1017.3 |
| 20260903132518 | 28 | 0 | 0.0 | 3.2 | 0.00 | 0.00 | 0.00 | 74 | 1017.3 |
| 20260903132017 | 28 | 0 | 0.0 | 3.2 | 0.00 | 0.00 | 0.00 | 74 | 1017.2 |
| 20260903131542 | 27 | 0 | 0.0 | 0.0 | 0.00 | 0.00 | 0.00 | 73 | 1017.3 |
| 20260903131018 | 27 | 0 | 0.0 | 0.0 | 0.00 | 0.00 | 0.00 | 71 | 1017.3 |
| 20260903130521 | 26 | 0 | 0.0 | 0.0 | 0.00 | 0.00 | 0.00 | 71 | 1017.1 |
| 20260903130041 | 26 | 0 | 0.0 | 3.2 | 0.00 | 0.00 | 0.00 | 68 | 1017.2 |
| 20260903125517 | 26 | 0 | 0.0 | 3.2 | 0.00 | 0.00 | 0.00 | 67 | 1017.1 |
| 20260903125020 | 25 | 0 | 0.0 | 1.6 | 0.00 | 0.00 | 0.00 | 62 | 1017.1 |
| 20260903124539 | 25 | 140 | 0.0 | 0.0 | 0.00 | 0.00 | 0.00 | 57 | 1017.1 |
| 20260903124021 | 25 | 0 | 0.0 | 1.6 | 0.00 | 0.00 | 0.00 | 54 | 1017.3 |
| 20260903123521 | 25 | 0 | 0.0 | 1.6 | 0.00 | 0.00 | 0.00 | 46 | 1017.3 |
| 20260903123043 | 25 | 0 | 0.0 | 0.0 | 0.00 | 0.00 | 0.00 | 43 | 1017.4 |
| 20260903122520 | 25 | 0 | 0.0 | 0.0 | 0.00 | 0.00 | 0.00 | 40 | 1017.2 |
| 20260903122019 | 25 | 0 | 0.0 | 0.0 | 0.00 | 0.00 | 0.00 | 42 | 1017.3 |
| 20260903121540 | 25 | 0 | 0.0 | 0.0 | 0.00 | 0.00 | 0.00 | 39 | 1017.2 |
| 20260903121024 | 24 | 0 | 0.0 | 0.0 | 0.00 | 0.00 | 0.00 | 40 | 1017.2 |
| 20260903120520 | 24 | 0 | 0.0 | 0.0 | 0.00 | 0.00 | 0.00 | 41 | 1017.1 |
| 20260903120047 | 24 | 0 | 0.0 | 0.0 | 0.00 | 0.00 | 0.00 | 41 | 1017.1 |
| 20260903115523 | 24 | 0 | 0.0 | 0.0 | 0.00 | 0.00 | 0.00 | 42 | 1017.1 |
| 20260903115020 | 24 | 0 | 0.0 | 0.0 | 0.00 | 0.00 | 0.00 | 41 | 1017.0 |
| 20260903114600 | 24 | 0 | 0.0 | 0.0 | 0.00 | 0.00 | 0.00 | 40 | 1017.0 |
| 20260903114021 | 24 | 0 | 0.0 | 0.0 | 0.00 | 0.00 | 0.00 | 41 | 1016.7 |
| 20260903113522 | 24 | 0 | 0.0 | 0.0 | 0.00 | 0.00 | 0.00 | 44 | 1016.8 |
| 20260903113040 | 24 | 0 | 0.0 | 0.0 | 0.00 | 0.00 | 0.00 | 46 | 1016.5 |
| 20260903112519 | 24 | 0 | 0.0 | 0.0 | 0.00 | 0.00 | 0.00 | 45 | 1016.5 |
| 20260903112018 | 24 | 0 | 0.0 | 0.0 | 0.00 | 0.00 | 0.00 | 46 | 1016.5 |
| 20260903111540 | 24 | 0 | 0.0 | 0.0 | 0.00 | 0.00 | 0.00 | 46 | 1016.4 |
| 20260903111020 | 24 | 0 | 0.0 | 0.0 | 0.00 | 0.00 | 0.00 | 47 | 1016.3 |
| 20260903110521 | 24 | 0 | 0.0 | 0.0 | 0.00 | 0.00 | 0.00 | 46 | 1016.4 |
| 20260903110044 | 24 | 0 | 0.0 | 0.0 | 0.00 | 0.00 | 0.00 | 47 | 1016.3 |
| 20260903105520 | 24 | 0 | 0.0 | 0.0 | 0.00 | 0.00 | 0.00 | 47 | 1016.4 |
| 20260903105020 | 24 | 0 | 0.0 | 0.0 | 0.00 | 0.00 | 0.00 | 48 | 1016.4 |
| 20260903104541 | 25 | 0 | 0.0 | 0.0 | 0.00 | 0.00 | 0.00 | 47 | 1016.3 |
| 20260903104018 | 25 | 0 | 0.0 | 0.0 | 0.00 | 0.00 | 0.00 | 47 | 1016.1 |
| 20260903103520 | 24 | 0 | 0.0 | 0.0 | 0.00 | 0.00 | 0.00 | 47 | 1016.2 |
| 20260903103042 | 25 | 0 | 0.0 | 0.0 | 0.00 | 0.00 | 0.00 | 48 | 1016.1 |
| 20260903102518 | 25 | 0 | 0.0 | 0.0 | 0.00 | 0.00 | 0.00 | 50 | 1016.2 |
| 20260903102022 | 25 | 0 | 0.0 | 0.0 | 0.00 | 0.00 | 0.00 | 49 | 1016.1 |
| 20260903101542 | 25 | 0 | 0.0 | 0.0 | 0.00 | 0.00 | 0.00 | 49 | 1016.1 |
| 20260903101019 | 25 | 0 | 0.0 | 0.0 | 0.00 | 0.00 | 0.00 | 49 | 1016.0 |
| 20260903100520 | 25 | 0 | 0.0 | 0.0 | 0.00 | 0.00 | 0.00 | 50 | 1016.1 |
| 20260903100041 | 25 | 0 | 0.0 | 0.0 | 0.00 | 0.00 | 0.00 | 52 | 1016.0 |
| 20260903095517 | 25 | 0 | 0.0 | 0.0 | 0.00 | 0.00 | 0.00 | 52 | 1016.0 |
| 20260903095021 | 25 | 0 | 0.0 | 0.0 | 0.00 | 0.00 | 0.00 | 53 | 1016.0 |
| 20260903094542 | 25 | 0 | 0.0 | 0.0 | 0.00 | 0.00 | 0.00 | 54 | 1016.1 |
| 20260903094017 | 25 | 0 | 0.0 | 0.0 | 0.00 | 0.00 | 0.00 | 54 | 1016.0 |
| 20260903093521 | 25 | 0 | 0.0 | 0.0 | 0.00 | 0.00 | 0.00 | 55 | 1016.0 |
| 20260903093052 | 25 | 0 | 0.0 | 0.0 | 0.00 | 0.00 | 0.00 | 55 | 1016.1 |
| 20260903092518 | 25 | 0 | 0.0 | 0.0 | 0.00 | 0.00 | 0.00 | 55 | 1016.0 |
| 20260903092020 | 25 | 0 | 0.0 | 0.0 | 0.00 | 0.00 | 0.00 | 57 | 1016.0 |
| 20260903091541 | 25 | 0 | 0.0 | 0.0 | 0.00 | 0.00 | 0.00 | 58 | 1016.1 |
| 20260903091020 | 25 | 0 | 0.0 | 0.0 | 0.00 | 0.00 | 0.00 | 58 | 1016.1 |
| 20260903090523 | 25 | 0 | 0.0 | 0.0 | 0.00 | 0.00 | 0.00 | 60 | 1016.2 |
| 20260903090040 | 25 | 0 | 0.0 | 0.0 | 0.00 | 0.00 | 0.00 | 60 | 1016.1 |
| 20260903085520 | 25 | 0 | 0.0 | 0.0 | 0.00 | 0.00 | 0.00 | 58 | 1016.2 |
| 20260903085018 | 25 | 0 | 0.0 | 0.0 | 0.00 | 0.00 | 0.00 | 57 | 1016.2 |
| 20260903084537 | 25 | 0 | 0.0 | 0.0 | 0.00 | 0.00 | 0.00 | 59 | 1016.2 |
| 20260903084020 | 25 | 0 | 0.0 | 0.0 | 0.00 | 0.00 | 0.00 | 57 | 1016.0 |
| 20260903083521 | 25 | 0 | 0.0 | 0.0 | 0.00 | 0.00 | 0.00 | 58 | 1016.2 |
| 20260903083042 | 25 | 0 | 0.0 | 0.0 | 0.00 | 0.00 | 0.00 | 58 | 1016.1 |
| 20260903082520 | 25 | 0 | 0.0 | 0.0 | 0.00 | 0.00 | 0.00 | 59 | 1016.2 |
| 20260903082020 | 25 | 0 | 0.0 | 0.0 | 0.00 | 0.00 | 0.00 | 57 | 1015.9 |
| 20260903081541 | 25 | 0 | 0.0 | 0.0 | 0.00 | 0.00 | 0.00 | 57 | 1016.0 |
| 20260903081017 | 25 | 0 | 0.0 | 0.0 | 0.00 | 0.00 | 0.00 | 58 | 1016.0 |
| 20260903080520 | 25 | 0 | 0.0 | 0.0 | 0.00 | 0.00 | 0.00 | 58 | 1015.9 |
| 20260903080042 | 25 | 0 | 0.0 | 0.0 | 0.00 | 0.00 | 0.00 | 59 | 1015.9 |
| 20260903075519 | 25 | 0 | 0.0 | 0.0 | 0.00 | 0.00 | 0.00 | 61 | 1016.0 |
| 20260903075025 | 25 | 0 | 0.0 | 0.0 | 0.00 | 0.00 | 0.00 | 60 | 1015.9 |
| 20260903074550 | 25 | 0 | 0.0 | 0.0 | 0.00 | 0.00 | 0.00 | 61 | 1015.9 |
| 20260903074025 | 25 | 0 | 0.0 | 0.0 | 0.00 | 0.00 | 0.00 | 60 | 1016.0 |
| 20260903073524 | 25 | 0 | 0.0 | 0.0 | 0.00 | 0.00 | 0.00 | 61 | 1015.9 |
| 20260903073044 | 25 | 0 | 0.0 | 0.0 | 0.00 | 0.00 | 0.00 | 60 | 1015.8 |
| 20260903072519 | 25 | 0 | 0.0 | 0.0 | 0.00 | 0.00 | 0.00 | 61 | 1015.9 |
| 20260903072021 | 25 | 0 | 0.0 | 0.0 | 0.00 | 0.00 | 0.00 | 62 | 1015.9 |
| 20260903071539 | 26 | 0 | 0.0 | 0.0 | 0.00 | 0.00 | 0.00 | 63 | 1015.9 |
| 20260903071022 | 26 | 0 | 0.0 | 0.0 | 0.00 | 0.00 | 0.00 | 63 | 1016.0 |
| 20260903070520 | 26 | 0 | 0.0 | 0.0 | 0.00 | 0.00 | 0.00 | 64 | 1016.0 |
| 20260903070045 | 26 | 0 | 0.0 | 0.0 | 0.00 | 0.00 | 0.00 | 65 | 1016.0 |
| 20260903065521 | 26 | 0 | 0.0 | 0.0 | 0.00 | 0.00 | 0.00 | 64 | 1016.0 |
| 20260903065020 | 26 | 0 | 0.0 | 0.0 | 0.00 | 0.00 | 0.00 | 64 | 1016.0 |
| 20260903064539 | 26 | 0 | 0.0 | 0.0 | 0.00 | 0.00 | 0.00 | 66 | 1016.0 |
| 20260903064020 | 26 | 0 | 0.0 | 0.0 | 0.00 | 0.00 | 0.00 | 66 | 1016.0 |
| 20260903063520 | 26 | 0 | 0.0 | 0.0 | 0.00 | 0.00 | 0.00 | 66 | 1016.1 |
| 20260903063039 | 26 | 0 | 0.0 | 0.0 | 0.00 | 0.00 | 0.00 | 66 | 1016.2 |
| 20260903062521 | 26 | 0 | 0.0 | 0.0 | 0.00 | 0.00 | 0.00 | 66 | 1016.3 |
| 20260903062019 | 26 | 0 | 0.0 | 0.0 | 0.00 | 0.00 | 0.00 | 66 | 1016.1 |
| 20260903061544 | 26 | 0 | 0.0 | 0.0 | 0.00 | 0.00 | 0.00 | 67 | 1016.3 |
| 20260903061018 | 26 | 0 | 0.0 | 0.0 | 0.00 | 0.00 | 0.00 | 67 | 1016.4 |
| 20260903060521 | 26 | 0 | 0.0 | 0.0 | 0.00 | 0.00 | 0.00 | 68 | 1016.4 |
| 20260903060043 | 26 | 0 | 0.0 | 0.0 | 0.00 | 0.00 | 0.00 | 68 | 1016.3 |
| 20260903055520 | 26 | 0 | 0.0 | 0.0 | 0.00 | 0.00 | 0.00 | 68 | 1016.4 |
| 20260903055022 | 26 | 0 | 0.0 | 0.0 | 0.00 | 0.00 | 0.00 | 69 | 1016.4 |
| 20260903054541 | 26 | 0 | 0.0 | 0.0 | 0.00 | 0.00 | 0.00 | 68 | 1016.4 |
| 20260903054018 | 26 | 0 | 0.0 | 0.0 | 0.00 | 0.00 | 0.00 | 69 | 1016.4 |
| 20260903053520 | 26 | 0 | 0.0 | 0.0 | 0.00 | 0.00 | 0.00 | 70 | 1016.5 |
| 20260903053037 | 26 | 0 | 0.0 | 0.0 | 0.00 | 0.00 | 0.00 | 71 | 1016.4 |
| 20260903052518 | 26 | 0 | 0.0 | 0.0 | 0.00 | 0.00 | 0.00 | 70 | 1016.4 |
| 20260903052021 | 26 | 0 | 0.0 | 0.0 | 0.00 | 0.00 | 0.00 | 71 | 1016.3 |
| 20260903051542 | 26 | 0 | 0.0 | 0.0 | 0.00 | 0.00 | 0.00 | 71 | 1016.3 |
| 20260903051020 | 26 | 0 | 0.0 | 0.0 | 0.00 | 0.00 | 0.00 | 71 | 1016.4 |
| 20260903050523 | 26 | 0 | 0.0 | 0.0 | 0.00 | 0.00 | 0.00 | 71 | 1016.2 |
| 20260903050057 | 26 | 0 | 0.0 | 0.0 | 0.00 | 0.00 | 0.00 | 71 | 1016.2 |
| 20260903045520 | 26 | 0 | 0.0 | 0.0 | 0.00 | 0.00 | 0.00 | 71 | 1016.2 |
| 20260903045018 | 26 | 0 | 0.0 | 0.0 | 0.00 | 0.00 | 0.00 | 72 | 1016.2 |
| 20260903044537 | 26 | 0 | 0.0 | 0.0 | 0.00 | 0.00 | 0.00 | 72 | 1016.2 |
| 20260903044021 | 26 | 0 | 0.0 | 0.0 | 0.00 | 0.00 | 0.00 | 72 | 1016.2 |
| 20260903043521 | 26 | 0 | 0.0 | 0.0 | 0.00 | 0.00 | 0.00 | 72 | 1016.1 |
| 20260903043039 | 26 | 0 | 0.0 | 0.0 | 0.00 | 0.00 | 0.00 | 72 | 1016.1 |